Beaufort, SC

4:44 PM EST on February 14, 2016 (GMT -0500)
Beaufort Marine Corps Air Station

Weather History for KNBC - March, 2012

Change the Weather History Date:

Monday, March 5, 2012

  Actual Average Record
Temperature  
Mean Temperature 54 °F -  
Max Temperature 69 °F 68 °F 86 °F (1939)
Min Temperature 39 °F 48 °F 25 °F (1960)
Degree Days  
Heating Degree Days 11    
Growing Degree Days 4 (Base 50)    
Moisture  
Dew Point 28 °F    
Average Humidity 40    
Maximum Humidity 76    
Minimum Humidity 15    
Precipitation  
Precipitation 0.00 in - - ()
Sea Level Pressure  
Sea Level Pressure 30.24 in    
Wind  
Wind Speed 10 mph (WNW)    
Max Wind Speed 28 mph    
Max Gust Speed 37 mph    
Visibility 10 miles    
Events      
Averages and records for this station are not official NWS values.
T = Trace of Precipitation, MM = Missing Value Source: NWS Daily Summary

Daily Weather History Graph

Daily Weather History Graph

Search for Another Location

Airport or City:

Trip Planner

Search our weather history database for the weather conditions in past years. The results will help you decide how hot, cold, wet, or windy it might be!

Date:

Astronomy

Mar. 05, 2012 Rise Set
Actual Time 6:45 AM EST 6:23 PM EST
Civil Twilight 6:20 AM EST 6:48 PM EST
Nautical Twilight 5:52 AM EST 7:16 PM EST
Astronomical Twilight 5:23 AM EST 7:45 PM EST
Moon 3:47 PM EST (3/5) 4:35 AM EST (3/5)
Length of Visible Light 12h 27m
Length of Day
11h 38m
Waxing Gibbous, 91% of the Moon is Illuminated
Mar 5
Waxing Gibbous
Mar 8
Full
Mar 14
Last Quarter
Mar 22
New
Mar 30
First Quarter

Hourly Weather History & Observations

Time (EST) Temp. Windchill Dew Point Humidity Pressure Visibility Wind Dir Wind Speed Gust Speed Precip Events Conditions
12:56 AM 39.0 °F 35.7 °F 32.0 °F 76% 30.18 in 10.0 mi SW 4.6 mph - N/A   Clear
1:56 AM 39.9 °F 36.7 °F 32.0 °F 73% 30.17 in 10.0 mi SW 4.6 mph - N/A   Clear
2:56 AM 39.0 °F 36.8 °F 32.0 °F 76% 30.17 in 10.0 mi SW 3.5 mph - N/A   Clear
3:56 AM 41.0 °F 39.0 °F 32.0 °F 70% 30.16 in 10.0 mi SSW 3.5 mph - N/A   Clear
4:56 AM 41.0 °F 35.8 °F 30.9 °F 67% 30.16 in 10.0 mi SW 8.1 mph - N/A   Clear
5:56 AM 45.0 °F 40.1 °F 33.1 °F 63% 30.17 in 10.0 mi SW 9.2 mph - N/A   Clear
6:56 AM 48.9 °F - 32.0 °F 52% 30.16 in 10.0 mi SW 15.0 mph - N/A   Clear
7:56 AM 53.1 °F - 30.9 °F 43% 30.17 in 10.0 mi SW 21.9 mph 27.6 mph N/A   Clear
8:56 AM 55.9 °F - 33.1 °F 42% 30.18 in 10.0 mi SW 18.4 mph - N/A   Clear
9:56 AM 62.1 °F - 30.9 °F 31% 30.19 in 10.0 mi West 18.4 mph 31.1 mph N/A   Clear
10:56 AM 64.0 °F - 32.0 °F 30% 30.18 in 10.0 mi West 20.7 mph 27.6 mph N/A   Clear
11:56 AM 66.9 °F - 30.9 °F 26% 30.17 in 10.0 mi West 16.1 mph 33.4 mph N/A   Clear
12:56 PM 68.0 °F - 28.0 °F 22% 30.17 in 10.0 mi WNW 20.7 mph 35.7 mph N/A   Clear
1:56 PM 69.1 °F - 28.9 °F 22% 30.17 in 10.0 mi WNW 21.9 mph 32.2 mph N/A   Clear
2:56 PM 68.0 °F - 26.1 °F 21% 30.18 in 10.0 mi WNW 27.6 mph 36.8 mph N/A   Clear
3:56 PM 68.0 °F - 19.0 °F 15% 30.20 in 10.0 mi NW 18.4 mph 28.8 mph N/A   Clear
4:56 PM 66.0 °F - 18.0 °F 16% 30.24 in 10.0 mi NNW 15.0 mph 23.0 mph N/A   Clear
5:56 PM 62.1 °F - 17.1 °F 18% 30.28 in 10.0 mi North 10.4 mph - N/A   Clear
6:56 PM 59.0 °F - 19.9 °F 22% 30.32 in 10.0 mi North 6.9 mph - N/A   Clear
7:56 PM 55.0 °F - 21.9 °F 28% 30.37 in 10.0 mi North 5.8 mph - N/A   Clear
8:56 PM 53.1 °F - 23.0 °F 31% 30.40 in 10.0 mi North 4.6 mph - N/A   Clear
9:56 PM 52.0 °F - 25.0 °F 35% 30.43 in 10.0 mi North 5.8 mph - N/A   Clear
10:56 PM 48.0 °F - 27.0 °F 44% 30.45 in 10.0 mi NE 8.1 mph - N/A   Clear
11:56 PM 46.9 °F - 26.1 °F 44% 30.46 in 10.0 mi NNE 9.2 mph - N/A   Clear